sat.trackr.live / text

‹ back to catalog

STARLINK-3771

NORAD 52293 · 2022-041AJ

PAYLOAD ACTIVE UNKNOWN

§ Identity

Operator
Country
US
Launch date
2022-04-21
Launch site
AFETR
Launch vehicle
Mass (kg)
RCS (m²)

Purposes: comms

External: N2YO · Heavens-Above · Gunter

§ Orbital elements

Epoch: 2026-05-25T03:16:28.848000Z

Period
95.44 min
Inclination
53.2127°
Eccentricity
0.0001294
Mean motion
15.08836213 rev/d
Perigee alt
538.9 km
Apogee alt
540.7 km
Semi-major
6,917.9 km
B*
5.1277e-5
RAAN
115.9458°
Arg perigee
82.9094°
Mean anomaly
277.2046°
Rev number
22,604

§ Raw data

STARLINK-37711 52293U 22041AJ  26145.13644500  .00000528  00000+0  51277-4 0  99912 52293  53.2127 115.9458 0001294  82.9094 277.2046 15.08836213226043

JSON: /api/v1/satellites/52293 · /tle

For live sub-satellite position, see the globe view (requires WebGL).

§ Visibility from observer

Set your observer location to see the next 7 days of passes ≥ 10°. The values pass through the URL so the page stays shareable.

No JS? Fill the form by hand. The geolocation button needs JavaScript.